Stündliche Wetter Ceneb

Heute, 27 Januar, Mittwoch

Zeit Temperatur Niederschläge Wind Luftdruck Luftfeuchtigkeit
00:00 -3°C° 0 mm 4 m/S 616 mmHg 45%
01:00 -3°C° 0 mm 4 m/S 615 mmHg 45%
02:00 -3°C° 0 mm 4 m/S 615 mmHg 45%
03:00 -3°C° 0 mm 4 m/S 615 mmHg 46%
04:00 -3°C° 0 mm 4 m/S 615 mmHg 46%
05:00 -3°C° 0 mm 4 m/S 615 mmHg 47%
06:00 -3°C° 0 mm 4 m/S 615 mmHg 47%
07:00 -2°C° 0 mm 4 m/S 615 mmHg 48%
08:00 -1°C° 0 mm 4 m/S 615 mmHg 49%
09:00 +1°C° 0 mm 4 m/S 615 mmHg 51%
10:00 +3°C° 0 mm 4 m/S 615 mmHg 54%
11:00 +4°C° 0 mm 4 m/S 615 mmHg 56%
12:00 +5°C° 0 mm 4 m/S 615 mmHg 59%
13:00 +5°C° 0 mm 4 m/S 615 mmHg 59%
14:00 +5°C° 0 mm 4 m/S 614 mmHg 58%
15:00 +4°C° 0 mm 4 m/S 614 mmHg 58%
16:00 +2°C° 0 mm 5 m/S 613 mmHg 55%
17:00 +1°C° 0 mm 5 m/S 613 mmHg 51%
18:00 -1°C° 0 mm 5 m/S 612 mmHg 47%
19:00 -2°C° 0 mm 6 m/S 612 mmHg 47%
20:00 -2°C° 0 mm 6 m/S 611 mmHg 46%
21:00 -2°C° 0 mm 6 m/S 611 mmHg 46%
22:00 -2°C° 0 mm 6 m/S 611 mmHg 46%
23:00 -2°C° 0 mm 6 m/S 611 mmHg 46%

Morgen, 28 Januar, Donnerstag

Zeit Temperatur Niederschläge Wind Luftdruck Luftfeuchtigkeit
00:00 -2°C° 0 mm 6 m/S 610 mmHg 47%
01:00 -2°C° 0 mm 6 m/S 610 mmHg 47%
02:00 -2°C° 0 mm 6 m/S 610 mmHg 48%
03:00 -2°C° 0 mm 6 m/S 609 mmHg 48%
04:00 -2°C° 0 mm 6 m/S 609 mmHg 47%
05:00 -1°C° 0 mm 5 m/S 609 mmHg 46%
06:00 -1°C° 0 mm 5 m/S 609 mmHg 45%
07:00 0°C° 0 mm 5 m/S 609 mmHg 46%
08:00 +1°C° 0 mm 5 m/S 610 mmHg 47%
09:00 +2°C° 0 mm 5 m/S 610 mmHg 48%
10:00 +3°C° 0 mm 5 m/S 610 mmHg 54%
11:00 +3°C° 0 mm 5 m/S 610 mmHg 59%
12:00 +5°C° 0 mm 5 m/S 610 mmHg 65%
13:00 +5°C° 0.2 mm 5 m/S 609 mmHg 68%
14:00 +3°C° 0.2 mm 6 m/S 609 mmHg 71%
15:00 +3°C° 0.2 mm 6 m/S 608 mmHg 74%
16:00 +2°C° 0 mm 6 m/S 608 mmHg 71%
17:00 +1°C° 0 mm 5 m/S 608 mmHg 68%
18:00 0°C° 0 mm 5 m/S 608 mmHg 65%
19:00 0°C° 0 mm 5 m/S 608 mmHg 66%
20:00 -1°C° 0 mm 5 m/S 609 mmHg 67%
21:00 -2°C° 0 mm 5 m/S 609 mmHg 69%
22:00 -2°C° 0 mm 5 m/S 609 mmHg 67%
23:00 -2°C° 0 mm 5 m/S 609 mmHg 65%

übermorgen, 29 Januar, Freitag

Zeit Temperatur Niederschläge Wind Luftdruck Luftfeuchtigkeit
00:00 -3°C° 0 mm 4 m/S 610 mmHg 64%
01:00 -3°C° 0 mm 4 m/S 610 mmHg 64%
02:00 -3°C° 0 mm 4 m/S 610 mmHg 64%
03:00 -2°C° 0 mm 3 m/S 609 mmHg 65%
04:00 -2°C° 0.1 mm 3 m/S 610 mmHg 71%
05:00 -2°C° 0.1 mm 3 m/S 610 mmHg 77%
06:00 -2°C° 0.1 mm 3 m/S 610 mmHg 84%
07:00 -2°C° 0.5 mm 2 m/S 611 mmHg 86%
08:00 -2°C° 0.5 mm 2 m/S 611 mmHg 89%
09:00 -2°C° 0.5 mm 2 m/S 611 mmHg 92%
10:00 -1°C° 0.2 mm 2 m/S 611 mmHg 89%
11:00 0°C° 0.2 mm 3 m/S 612 mmHg 86%
12:00 +1°C° 0.2 mm 3 m/S 612 mmHg 83%
13:00 +1°C° 0.1 mm 3 m/S 612 mmHg 81%
14:00 +1°C° 0.1 mm 3 m/S 612 mmHg 79%
15:00 +1°C° 0.1 mm 3 m/S 612 mmHg 77%
16:00 -1°C° 0 mm 3 m/S 612 mmHg 79%
17:00 -2°C° 0 mm 3 m/S 611 mmHg 81%
18:00 -4°C° 0 mm 3 m/S 611 mmHg 84%
19:00 -4°C° 0 mm 3 m/S 611 mmHg 83%
20:00 -4°C° 0 mm 3 m/S 611 mmHg 82%
21:00 -4°C° 0 mm 4 m/S 612 mmHg 81%
22:00 -4°C° 0 mm 3 m/S 612 mmHg 81%
23:00 -4°C° 0 mm 3 m/S 612 mmHg 81%

30 Januar, Samstag

Zeit Temperatur Niederschläge Wind Luftdruck Luftfeuchtigkeit
00:00 -5°C° 0 mm 3 m/S 612 mmHg 82%
01:00 -5°C° 0 mm 3 m/S 611 mmHg 82%
02:00 -5°C° 0 mm 3 m/S 611 mmHg 82%
03:00 -6°C° 0 mm 3 m/S 611 mmHg 81%
04:00 -6°C° 0 mm 3 m/S 610 mmHg 79%
05:00 -6°C° 0 mm 3 m/S 610 mmHg 77%
06:00 -5°C° 0 mm 2 m/S 610 mmHg 74%
07:00 -4°C° 0 mm 2 m/S 611 mmHg 73%
08:00 -4°C° 0 mm 2 m/S 611 mmHg 72%
09:00 -3°C° 0 mm 2 m/S 612 mmHg 70%
10:00 -2°C° 0 mm 2 m/S 612 mmHg 69%
11:00 +1°C° 0 mm 2 m/S 612 mmHg 67%
12:00 +2°C° 0 mm 2 m/S 612 mmHg 65%
13:00 +2°C° 0 mm 2 m/S 612 mmHg 66%
14:00 +2°C° 0 mm 2 m/S 612 mmHg 66%
15:00 +2°C° 0 mm 2 m/S 611 mmHg 67%
16:00 -1°C° 0 mm 2 m/S 611 mmHg 68%
17:00 -2°C° 0 mm 3 m/S 611 mmHg 69%
18:00 -5°C° 0 mm 3 m/S 610 mmHg 70%
19:00 -5°C° 0 mm 3 m/S 610 mmHg 68%
20:00 -5°C° 0 mm 4 m/S 610 mmHg 66%
21:00 -5°C° 0 mm 4 m/S 610 mmHg 64%
22:00 -5°C° 0 mm 4 m/S 609 mmHg 65%
23:00 -7°C° 0 mm 4 m/S 609 mmHg 66%

31 Januar, Sonntag

Zeit Temperatur Niederschläge Wind Luftdruck Luftfeuchtigkeit
00:00 -7°C° 0 mm 4 m/S 609 mmHg 67%
01:00 -7°C° 0 mm 5 m/S 608 mmHg 68%
02:00 -7°C° 0 mm 5 m/S 608 mmHg 68%
03:00 -7°C° 0 mm 5 m/S 608 mmHg 68%
04:00 -7°C° 0 mm 5 m/S 608 mmHg 65%
05:00 -7°C° 0 mm 4 m/S 607 mmHg 62%
06:00 -8°C° 0 mm 4 m/S 607 mmHg 59%
07:00 -5°C° 0 mm 4 m/S 608 mmHg 56%
08:00 -4°C° 0 mm 4 m/S 608 mmHg 54%
09:00 -2°C° 0 mm 3 m/S 609 mmHg 51%
10:00 0°C° 0 mm 3 m/S 609 mmHg 51%
11:00 +1°C° 0 mm 3 m/S 610 mmHg 52%
12:00 +4°C° 0 mm 2 m/S 611 mmHg 52%
13:00 +4°C° 0 mm 2 m/S 611 mmHg 54%
14:00 +4°C° 0 mm 2 m/S 611 mmHg 56%
15:00 +4°C° 0 mm 2 m/S 611 mmHg 58%
16:00 +2°C° 0 mm 2 m/S 611 mmHg 57%
17:00 +1°C° 0 mm 2 m/S 611 mmHg 56%
18:00 -1°C° 0 mm 2 m/S 612 mmHg 55%
19:00 -1°C° 0 mm 2 m/S 612 mmHg 55%
20:00 -2°C° 0 mm 2 m/S 612 mmHg 55%
21:00 -2°C° 0 mm 2 m/S 613 mmHg 56%
22:00 -2°C° 0 mm 2 m/S 613 mmHg 56%
23:00 -2°C° 0 mm 2 m/S 613 mmHg 57%

1 Februar, Montag

Zeit Temperatur Niederschläge Wind Luftdruck Luftfeuchtigkeit
00:00 -2°C° 0 mm 3 m/S 614 mmHg 58%
01:00 -2°C° 0 mm 3 m/S 614 mmHg 60%
02:00 -2°C° 0 mm 3 m/S 614 mmHg 62%
03:00 -2°C° 0 mm 3 m/S 614 mmHg 64%
04:00 -2°C° 0 mm 3 m/S 614 mmHg 64%
05:00 -2°C° 0 mm 3 m/S 614 mmHg 64%
06:00 -2°C° 0 mm 3 m/S 614 mmHg 65%
07:00 -1°C° 0 mm 3 m/S 615 mmHg 64%
08:00 -2°C° 0 mm 4 m/S 616 mmHg 63%
09:00 -1°C° 0 mm 4 m/S 616 mmHg 62%
10:00 +2°C° 0 mm 3 m/S 616 mmHg 62%
11:00 +3°C° 0 mm 3 m/S 617 mmHg 61%
12:00 +4°C° 0 mm 3 m/S 617 mmHg 61%
13:00 +4°C° 0 mm 3 m/S 617 mmHg 61%
14:00 +4°C° 0 mm 3 m/S 616 mmHg 62%
15:00 +5°C° 0 mm 2 m/S 616 mmHg 62%
16:00 +3°C° 0 mm 3 m/S 616 mmHg 58%
17:00 +2°C° 0 mm 3 m/S 616 mmHg 54%
18:00 +1°C° 0 mm 3 m/S 615 mmHg 50%
19:00 +1°C° 0 mm 3 m/S 615 mmHg 47%
20:00 +1°C° 0 mm 3 m/S 615 mmHg 44%
21:00 +2°C° 0 mm 3 m/S 616 mmHg 42%
22:00 +2°C° 0 mm 3 m/S 616 mmHg 42%
23:00 +2°C° 0 mm 3 m/S 616 mmHg 41%
Mehr zeigen

Wir brauchen deine Erlaubnis

Meteoprog und unser Service Anbieter werden persönliche Daten aufbewahren, so wie Cookies, Geräte Bezeichnung oder ähnliche Technologien von deinem Gerät und Prozess, so wie Persönliche Daten Inhalte und Werbungen, genauso wie social Media und den Verkehr zu analysieren.

  • Aufbewahrung und/oder Zugang zu deiner Geräte Informationen.

    Cookies, Geräte Bezeichnung oder andere Informationen, können aufbewahrt oder Zugang zu deinem Gerät erhalten, für den Grund, der oben angegeben wird.

  • Personalisierte Werbung und Inhalte, Messungen, Einblick in das Publikum und Produkt Entwicklung.

    Werbungen und Inhalte können personalisiert werden, basierend auf ein Profil. Mehr Daten können besser personalisierte Werbungen und Inhalte hinzufügen. Werbung und Inhalte können gezeigt und gemessen werden. Einblicke über das Publikum, welche die Werbung gesehen haben und den Inhalt, können abgeleitet werden. So wie Daten können genutzt werden, um es zu verbessern oder die Benutzer Erfahrung zu verbessern das System und die Software.

Wenn du “Ich stimme zu” klickst, erlaubst du uns, die Cookies zu benutzen die Geräte Bezeichnung, den Web oder ähnliche Technologien zu benutzen. Deine Settings, können in deinem Gerät bei deinem Browser geändert werden.

Für den bestimmten Zweck, berechtigten Interessen beruhen darauf, mehr als auf den Inhalt. Du kannst mehr darüber in unseren Privaten und Cookie Politik lesen.